Location: Elaine Barite Prospect
(34.1431°N, 106.7922°W)
Time: 12:21:14
(UTC+00:00)

ARIANE 5 R/B - Pass Details

Date: 13 December 2025
Orbit: 747 x 792 km, 98.8° (Epoch: 15 January)

Event Time Altitude Azimuth Distance (km) Brightness Sun altitude
Rises 13:11:43 0° 20° (NNE) 3,293 5.8 -10.8°
Reaches altitude 10° 13:14:09 10° 26° (NNE) 2,361 5.1 -10.3°
Maximum altitude 13:19:10 47° 100° (E) 1,035 3.8 -9.3°
Drops below altitude 10° 13:24:09 10° 174° (S) 2,340 5.4 -8.4°
Sets 13:26:32 0° 180° (S) 3,261 6.1 -7.9°
